This is the latest recevied weather packets stored in our database for station/object N5ZKK. If no packets are shown the sender has not sent any weather packets the latest 10 day(s).
| Time | Temp. | Humidity | Pressure | Rain* | Wind** | Luminosity | Snow |
|---|---|---|---|---|---|---|---|
| 1777644541 | 13.89° C | 99% | 1014.9 hPa | 0.76 mm | - | - | - |
| 1777642741 | 14.44° C | 99% | 1016.2 hPa | 2.29 mm | - | - | - |
| 1777640941 | 14.44° C | 99% | 1014.7 hPa | 3.05 mm | - | - | - |
| 1777639141 | 14.44° C | 99% | 1015.9 hPa | 2.29 mm | - | - | - |
| 1777637341 | 14.44° C | 99% | 1015.5 hPa | 1.52 mm | - | - | - |
| 1777635541 | 14.44° C | 99% | 1015 hPa | 0 mm | - | - | - |
| 1777633741 | 14.44° C | 99% | 1013.4 hPa | 0.25 mm | - | - | - |
| 1777631941 | 15° C | 99% | 1014 hPa | 2.29 mm | - | - | - |
| 1777630141 | 15° C | 99% | 1014.8 hPa | 2.29 mm | - | - | - |
| 1777628341 | 15.56° C | 99% | 1015 hPa | 0.25 mm | - | - | - |
| 1777626541 | 15.56° C | 99% | 1014.5 hPa | 0 mm | - | - | - |
| 1777624741 | 15.56° C | 99% | 1014.1 hPa | 0 mm | - | - | - |
| 1777622941 | 15.56° C | 99% | 1015.1 hPa | 0 mm | - | - | - |
| 1777621141 | 15.56° C | 99% | 1014.5 hPa | 0 mm | - | - | - |
| 1777619341 | 16.11° C | 99% | 1014.8 hPa | 0 mm | - | - | - |
| 1777617541 | 16.11° C | 99% | 1014.8 hPa | 0 mm | - | - | - |
| 1777615741 | 16.11° C | 99% | 1014.7 hPa | 0 mm | - | - | - |
| 1777613941 | 16.11° C | 99% | 1013.6 hPa | 0.51 mm | - | - | - |
| 1777612141 | 16.11° C | 99% | 1014.5 hPa | 0.25 mm | - | - | - |
| 1777610341 | 16.67° C | 99% | 1014.9 hPa | 0 mm | - | - | - |
| 1777608541 | 17.22° C | 99% | 1015.1 hPa | 0 mm | - | - | - |
| 1777606741 | 17.22° C | 99% | 1015.3 hPa | 0 mm | - | - | - |
| 1777604941 | 17.22° C | 99% | 1014.4 hPa | 0.76 mm | - | - | - |
| 1777603141 | 17.22° C | 99% | 1014 hPa | 3.05 mm | - | - | - |
| 1777601341 | 17.78° C | 99% | 1014.3 hPa | 2.54 mm | - | - | - |
* Rain latest hour (hover to see other rain measurements)
** Current wind speed in m/s (hover to see current wind gust speed)